Change the Weather History Date:

Saturday, May 11, 2013

  Actual Average Record
Temperature  
Mean Temperature 67 °F -  
Max Temperature 88 °F 76 °F 91 °F (2008)
Min Temperature 46 °F 45 °F 39 °F (1998)
Cooling Degree Days 2    
Growing Degree Days 17 (Base 50)    
Moisture  
Dew Point 42 °F    
Average Humidity 46    
Maximum Humidity 82    
Minimum Humidity 11    
Precipitation  
Precipitation 0.00 in - - ()
Sea Level Pressure  
Sea Level Pressure 30.13 in    
Wind  
Wind Speed 5 mph ()    
Max Wind Speed 13 mph    
Max Gust Speed -    
Visibility 6.1 miles    
Events      
Averages and records for this station are not official NWS values.
T = Trace of Precipitation, MM = Missing Value Source: Averaged Metar Reports

Daily Weather History Graph

Daily Weather History Graph

Search for Another Location

Airport or City:

Trip Planner

Search our weather history database for the weather conditions in past years. The results will help you decide how hot, cold, wet, or windy it might be!

Date:

Astronomy

May. 11, 2013 Rise Set
Actual Time 6:31 AM CAT 5:41 PM CAT
Civil Twilight 6:08 AM CAT 6:04 PM CAT
Nautical Twilight 5:41 AM CAT 6:31 PM CAT
Astronomical Twilight 5:14 AM CAT 6:57 PM CAT
Moon 7:35 AM CAT (5/11) 6:52 PM CAT (5/11)
Length of Visible Light 11h 56m
Length of Day
11h 09m
New Moon, 2% of the Moon is Illuminated
May 11
New Moon
May 18
First Quarter
May 25
Full
May 31
Last Quarter
Jun 8
New

Hourly Weather History & Observations

Time (CAT) Temp. Windchill Dew Point Humidity Pressure Visibility Wind Dir Wind Speed Gust Speed Precip Events Conditions
12:00 AM 55.4 °F - 39.2 °F 54% 30.15 in - Calm Calm - N/A   Clear
1:00 AM 53.6 °F - 37.4 °F 54% 30.15 in - NNE 4.6 mph - N/A   Clear
2:00 AM 49 °F - 35 °F 48%  in 6 mi West 1.2 mph - -  
2:00 AM 48.2 °F - 35.6 °F 62% 30.12 in - Variable 1.2 mph - N/A   Clear
3:00 AM 46.4 °F 44.3 °F 33.8 °F 62% 30.12 in - SW 4.6 mph - N/A   Clear
4:00 AM 57.2 °F - 39.2 °F 51% 30.09 in - SE 3.5 mph - N/A   Clear
5:00 AM 46.4 °F 45.2 °F 41.0 °F 81% 30.12 in - SE 3.5 mph - N/A   Clear
6:00 AM 48.2 °F - 41.0 °F 76% 30.15 in - SE 5.8 mph - N/A   Clear
7:00 AM 48.2 °F - 42.8 °F 82% 30.18 in - Variable 2.3 mph - N/A   Clear
8:00 AM 58 °F - 48 °F 61%  in 6 mi East 8.1 mph - -  
8:00 AM 59.0 °F - 48.2 °F 67% 30.18 in - East 8.1 mph - N/A   Clear
9:00 AM 66.2 °F - 48.2 °F 52% 30.18 in - ENE 10.4 mph - N/A   Clear
10:00 AM 73.4 °F - 48.2 °F 41% 30.18 in - NE 12.7 mph - N/A   Clear
11:00 AM 80.6 °F - 46.4 °F 30% 30.15 in - NNE 6.9 mph - N/A   Clear
12:00 PM 84.2 °F - 39.2 °F 20% 30.12 in - North 5.8 mph - N/A   Clear
1:00 PM 87.8 °F - 37.4 °F 17% 30.09 in 6.2 mi NNW 10.4 mph - N/A   Partly Cloudy
2:00 PM 88 °F - 41 °F 11%  in 6 mi WNW 9.2 mph - -   Partly Cloudy
2:00 PM 87.8 °F - 41.0 °F 19% 30.09 in 6.2 mi WNW 9.2 mph - N/A   Scattered Clouds
3:00 PM 86.0 °F - 39.2 °F 19% 30.06 in - West 9.2 mph - N/A   Clear
4:00 PM 87.8 °F - 41.0 °F 19% 30.06 in 6.2 mi WNW 6.9 mph - N/A   Mostly Cloudy
5:00 PM 86.0 °F - 37.4 °F 18% 30.09 in 6.2 mi NW 12.7 mph - N/A   Scattered Clouds
6:00 PM 78.8 °F - 41.0 °F 26% 30.09 in 6.2 mi SE 6.9 mph - N/A   Partly Cloudy
7:00 PM 71.6 °F - 51.8 °F 50% 30.12 in 6.2 mi SE 6.9 mph - N/A   Partly Cloudy
9:00 PM 66.2 °F - 50.0 °F 56% 30.18 in - ESE 6.9 mph - N/A   Clear
10:00 PM 62.6 °F - 50.0 °F 63% 30.18 in - SSE 5.8 mph - N/A   Clear
11:00 PM 64.4 °F - 50.0 °F 59% 30.18 in - ESE 5.8 mph - N/A   Clear